Jonesboro, AR

1:33 PM CST on December 08, 2016 (GMT -0600)
Jonesboro Municipal

Weather History for KJBR - February, 2013

Change the Weather History Date:

Monday, February 18, 2013

  Actual Average Record
Temperature  
Mean Temperature 49 °F 42 °F  
Max Temperature 56 °F 52 °F 76 °F (1961)
Min Temperature 42 °F 33 °F -1 °F (1936)
Degree Days  
Heating Degree Days 16 23  
Month to date heating degree days 387 446  
Since 1 July heating degree days 2378 2742  
Cooling Degree Days 0 0  
Month to date cooling degree days 0 0  
Year to date cooling degree days 0 0  
Moisture  
Dew Point 45 °F    
Average Humidity 74    
Maximum Humidity 82    
Minimum Humidity 65    
Precipitation  
Precipitation 0.66 in 0.15 in 4.83 in (1938)
Month to date precipitation 1.70 2.35  
Year to date precipitation 7.07 5.78  
Snow  
Snow 0.00 in 0.10 in 1.00 in (2006)
Month to date snowfall 0.0 1.0  
Since 1 July snowfall 7.0 3.8  
Snow Depth 0.00 in    
Sea Level Pressure  
Sea Level Pressure 29.85 in    
Wind  
Wind Speed 16 mph (SSW)    
Max Wind Speed 30 mph    
Max Gust Speed 38 mph    
Visibility 8 miles    
Events Rain , Thunderstorm    
T = Trace of Precipitation, MM = Missing Value Source: NWS Daily Summary

Daily Weather History Graph

Daily Weather History Graph

Search for Another Location

Airport or City:

Trip Planner

Search our weather history database for the weather conditions in past years. The results will help you decide how hot, cold, wet, or windy it might be!

Date:

Astronomy

Feb. 18, 2013 Rise Set
Actual Time 6:45 AM CST 5:47 PM CST
Civil Twilight 6:19 AM CST 6:13 PM CST
Nautical Twilight 5:50 AM CST 6:43 PM CST
Astronomical Twilight 5:20 AM CST 7:13 PM CST
Moon 11:39 AM CST (2/18) 1:20 AM CST (2/18)
Length of Visible Light 11h 53m
Length of Day
11h 01m
First Quarter, 58% of the Moon is Illuminated
Feb 18
First Quarter
Feb 25
Full
Mar 4
Last Quarter
Mar 11
New
Mar 19
First Quarter

Hourly Weather History & Observations

Time (CST) Temp. Windchill Dew Point Humidity Pressure Visibility Wind Dir Wind Speed Gust Speed Precip Events Conditions
12:53 AM 43.0 °F 38.8 °F 35.1 °F 74% 30.02 in 10.0 mi South 6.9 mph - N/A   Clear
1:53 AM 43.0 °F 37.7 °F 36.0 °F 76% 30.01 in 10.0 mi South 9.2 mph - N/A   Clear
2:53 AM 50.0 °F - 41.0 °F 71% 30.00 in 10.0 mi SSW 20.7 mph 26.5 mph N/A   Clear
3:53 AM 50.0 °F - 42.1 °F 74% 30.00 in 10.0 mi SSW 16.1 mph 28.8 mph N/A   Clear
4:53 AM 50.0 °F - 42.1 °F 74% 30.00 in 10.0 mi SSW 17.3 mph 23.0 mph N/A   Clear
5:53 AM 46.0 °F 40.6 °F 41.0 °F 83% 30.00 in 10.0 mi South 11.5 mph - N/A   Clear
6:53 AM 46.0 °F 40.6 °F 41.0 °F 83% 30.00 in 10.0 mi South 11.5 mph - N/A   Clear
7:53 AM 46.4 °F 39.5 °F 41.0 °F 81% 29.98 in 10.0 mi South 17.3 mph - N/A   Mostly Cloudy
8:53 AM 46.9 °F - 39.9 °F 77% 29.99 in 10.0 mi South 18.4 mph 27.6 mph N/A   Overcast
9:53 AM 50.0 °F - 42.1 °F 74% 29.96 in 10.0 mi South 13.8 mph 23.0 mph N/A   Overcast
10:53 AM 52.0 °F - 44.1 °F 74% 29.93 in 10.0 mi South 25.3 mph 34.5 mph 0.00 in   Overcast
11:53 AM 50.0 °F - 46.0 °F 86% 29.91 in 4.0 mi South 19.6 mph 28.8 mph 0.06 in Rain Rain
12:33 PM 51.8 °F - 48.2 °F 88% 29.88 in 8.0 mi South 20.7 mph 29.9 mph 0.03 in Rain Light Rain
12:53 PM 51.1 °F - 48.0 °F 89% 29.86 in 10.0 mi South 17.3 mph 26.5 mph 0.04 in Thunderstorm Overcast
1:08 PM 51.8 °F - 48.2 °F 88% 29.86 in 6.0 mi South 19.6 mph 27.6 mph 0.02 in Rain Light Rain
1:21 PM 51.8 °F - 48.2 °F 88% 29.84 in 2.5 mi South 20.7 mph 27.6 mph 0.08 in Rain Rain
1:29 PM 51.8 °F - 48.2 °F 88% 29.83 in 10.0 mi South 16.1 mph 27.6 mph 0.08 in Rain Light Rain
1:36 PM 51.8 °F - 48.2 °F 88% 29.82 in 10.0 mi South 16.1 mph 24.2 mph 0.08 in Rain , Thunderstorm Light Rain
1:51 PM 51.8 °F - 48.2 °F 88% 29.82 in 10.0 mi South 15.0 mph - 0.08 in Rain Light Rain
1:53 PM 52.0 °F - 48.9 °F 89% 29.82 in 9.0 mi South 16.1 mph - 0.09 in Rain Light Rain
2:53 PM 55.0 °F - 50.0 °F 83% 29.77 in 10.0 mi South 28.8 mph 35.7 mph 0.00 in   Overcast
3:39 PM 55.4 °F - 50.0 °F 82% 29.75 in 10.0 mi South 21.9 mph 29.9 mph 0.00 in   Overcast
3:53 PM 55.9 °F - 48.9 °F 77% 29.74 in 10.0 mi South 20.7 mph 32.2 mph 0.00 in   Overcast
4:34 PM 55.4 °F - 50.0 °F 82% 29.71 in 10.0 mi South 17.3 mph 27.6 mph 0.00 in Rain , Thunderstorm Light Rain
4:44 PM 55.4 °F - 50.0 °F 82% 29.72 in 10.0 mi South 16.1 mph 24.2 mph 0.01 in Rain , Thunderstorm Light Rain
4:53 PM 55.4 °F - 50.0 °F 82% 29.72 in 6.0 mi South 15.0 mph 23.0 mph N/A Rain , Thunderstorm Light Thunderstorms and Rain
5:09 PM 55.4 °F - 50.0 °F 82% 29.72 in 10.0 mi South 19.6 mph 28.8 mph 0.00 in   Overcast
5:24 PM 55.4 °F - 51.8 °F 88% 29.70 in 10.0 mi South 19.6 mph 26.5 mph N/A Rain Light Rain
5:53 PM 55.0 °F - 50.0 °F 83% 29.71 in 10.0 mi South 18.4 mph 28.8 mph 0.01 in   Overcast
6:12 PM 53.6 °F - 51.8 °F 94% 29.73 in 10.0 mi SW 16.1 mph - 0.00 in Rain , Thunderstorm Light Thunderstorms and Rain
6:24 PM 51.8 °F - 46.4 °F 82% 29.78 in 2.5 mi West 23.0 mph 36.8 mph 0.10 in Rain , Thunderstorm Heavy Thunderstorms and Rain
6:38 PM 51.8 °F - 46.4 °F 82% 29.77 in 1.8 mi West 18.4 mph 23.0 mph 0.30 in Rain , Thunderstorm Heavy Thunderstorms and Rain
6:41 PM 51.8 °F - 48.2 °F 88% 29.78 in 2.0 mi West 20.7 mph 28.8 mph 0.34 in Rain , Thunderstorm Heavy Thunderstorms and Rain
6:49 PM 51.8 °F - 48.2 °F 88% 29.76 in 3.0 mi WSW 11.5 mph 28.8 mph 0.39 in Rain , Thunderstorm Heavy Thunderstorms and Rain
6:53 PM 52.0 °F - 48.9 °F 89% 29.75 in 4.0 mi SW 13.8 mph 27.6 mph 0.40 in Rain , Thunderstorm Thunderstorms and Rain
7:02 PM 51.8 °F - 48.2 °F 88% 29.75 in 7.0 mi SSW 15.0 mph - 0.02 in Rain , Thunderstorm Light Thunderstorms and Rain
7:17 PM 51.8 °F - 48.2 °F 88% 29.75 in 10.0 mi SSW 18.4 mph - 0.03 in Rain Light Rain
7:53 PM 53.1 °F - 48.9 °F 86% 29.77 in 10.0 mi WSW 10.4 mph - 0.03 in   Mostly Cloudy
8:53 PM 52.0 °F - 45.0 °F 77% 29.82 in 10.0 mi West 18.4 mph 27.6 mph N/A   Partly Cloudy
9:16 PM 50.0 °F - 42.8 °F 76% 29.85 in 10.0 mi WNW 20.7 mph 31.1 mph N/A   Mostly Cloudy
9:53 PM 48.0 °F - 39.0 °F 71% 29.90 in 10.0 mi WNW 20.7 mph 28.8 mph N/A   Overcast
10:38 PM 46.4 °F 41.1 °F 37.4 °F 71% 29.93 in 10.0 mi WNW 11.5 mph - N/A   Scattered Clouds
10:53 PM 46.0 °F 39.9 °F 36.0 °F 68% 29.94 in 10.0 mi WNW 13.8 mph 23.0 mph N/A   Clear
11:53 PM 44.1 °F 40.8 °F 36.0 °F 73% 29.98 in 10.0 mi NW 5.8 mph - N/A   Clear